Regional Weather Roundup
Issued by NWS

Home | Current Version | Previous Version | Graphics & Text | Print | Product List | Glossary On
Versions: 1 2 3 4 5 6 7 8 9 10 11 12 13 14 15 16 17 18 19 20 21 22 23 24 25 26 27 28 29 30 31 32 33 34 35 36 37 38 39 40 41 42 43 44 45 46 47 48 49 50
000
ASUS43 KLMK 191810
RWRKY
KENTUCKY REGIONAL WEATHER ROUNDUP
NATIONAL WEATHER SERVICE LOUISVILLE KY
200 PM EDT SAT APR 19 2014

NOTE "FAIR" INDICATES FEW OR NO CLOUDS BELOW 12,000 FEET
WITH NO SIGNIFICANT WEATHER AND/OR OBSTRUCTIONS TO VISIBILITY.

KYZ001>023-026-027-061>063-070>075-191900-
WESTERN AND SOUTH CENTRAL KENTUCKY

CITY           SKY/WX    TMP DP  RH WIND       PRES   REMARKS
PADUCAH        SUNNY     77  42  28 NE10      30.21F
HENDERSON      SUNNY     70  43  37 E8        30.23F
OWENSBORO      SUNNY     71  41  33 NE13      30.23F
HOPKINSVILLE   SUNNY     73  41  31 NE9       30.20F
BOWLING GREEN  SUNNY     73  38  27 NE10      30.20F
GLASGOW        SUNNY     71  41  33 NE8G17    30.20F
$$

KYZ024-025-028>034-038-045-046-053-191900-
NORTH CENTRAL KENTUCKY

CITY           SKY/WX    TMP DP  RH WIND       PRES   REMARKS
LOUISVILLE/SDF MOSUNNY   72  31  22 NE12G18   30.23F
LOUISVILLE/LOU SUNNY     74  33  22 NE10      30.24F
FORT KNOX      SUNNY     72  40  31 NE9G20    30.22F
$$

KYZ035>037-039>044-047>052-055>060-089>105-191900-
NORTHEAST KENTUCKY

CITY           SKY/WX    TMP DP  RH WIND       PRES   REMARKS
LEXINGTON      SUNNY     71  41  33 NE20G25   30.24F
COVINGTON      SUNNY     67  39  35 E10       30.27F
FRANKFORT      SUNNY     71  36  27 NE10G18   30.23F
$$

KYZ054-064>069-076>088-106>120-191900-
SOUTHEAST KENTUCKY

CITY           SKY/WX    TMP DP  RH WIND       PRES   REMARKS
JACKSON        MOSUNNY   74  35  24 NE9G16    30.20F
LONDON         PTSUNNY   72  35  25 NE12G22   30.18F
SOMERSET       SUNNY     70  34  26 NE15G22   30.20F
MIDDLESBORO    CLOUDY    71  38  30 NE7G16    30.15F
MONTICELLO     MOCLDY    71  39  31 NE14G21   30.20F
$$




USA.gov is the U.S. government's official web portal to all federal, state and local government web resources and services.